Temperature
17 17 17 17 17 17 17 17 18 18 18 17 17 17 17 17 17 17 17 17 17 17 17 17 17 18 18 18 18 18 18 18 18 18 18 18 18 18 18 18 17 17 18
17 17 17 17 17 17 17 17 17 17 17 17 17 17 17 17 17 17 17 17 17 17 17 17 17 17 17 18 18 18 18 18 18 18 18 18 18 18 18 18 18 17 18
17 17 17 17 17 17 17 17 17 17 17 17 17 17 17 17 17 17 17 17 17 17 17 17 17 17 17 17 17 17 18 18 18 18 17 17 17 17 18 17 18 18 18
17 17 17 17 17 17 17 17 17 17 17 17 17 17 17 17 17 17 17 17 17 17 17 17 17 17 17 17 17 17 17 17 17 17 17 17 17 17 17 17 17 17 17
17 17 17 17 17 17 17 17 17 17 17 17 17 17 17 17 17 17 17 17 17 17 17 17 17 17 17 17 17 17 17 17 17 17 16 17 17 17 17 17 17 17 17
16 16 17 17 17 17 17 17 17 17 17 17 17 16 16 16 16 17 17 17 17 17 17 17 17 17 17 17 17 17 17 17 17 16 16 16 16 17 17 17 17 17 17
16 16 16 17 17 17 17 17 17 17 17 17 16 16 16 16 16 16 16 17 17 17 17 17 17 17 17 17 17 17 17 17 16 16 16 16 16 17 17 17 17 17 17
16 16 16 17 17 17 17 17 17 17 17 16 16 16 16 16 16 16 16 16 17 17 16 16 16 16 16 16 16 16 16 16 16 16 16 16 16 17 17 17 16 16 16
16 16 16 16 16 17 17 17 17 17 16 16 16 16 16 16 16 16 16 16 16 16 16 16 16 16 16 16 16 16 16 16 16 16 16 16 16 16 16 16 16 16 16
16 16 16 16 16 16 16 16 17 16 16 16 16 16 16 16 16 16 16 16 16 16 16 16 16 16 16 16 16 16 16 16 15 16 16 16 16 16 16 16 16 16 16
16 16 16 16 16 16 16 16 16 16 16 16 16 16 16 16 16 15 16 16 16 16 16 16 16 16 16 16 16 16 16 15 15 15 16 16 16 16 16 16 16 16 16
17 16 16 16 16 16 16 16 16 16 16 16 16 16 16 16 16 16 16 16 16 16 16 16 16 16 15 15 15 15 15 15 15 15 15 16 16 16 16 16 16 16 16
17 16 16 16 16 16 16 16 16 16 16 16 16 16 16 16 16 15 15 15 15 15 15 15 15 15 15 15 15 15 15 15 15 15 15 15 16 15 15 16 15 15 15
16 16 16 16 16 16 16 16 16 16 16 16 16 16 16 16 16 15 15 15 15 15 15 15 15 15 15 15 15 15 15 15 15 15 15 15 15 15 15 15 15 15 15
16 16 16 16 16 16 16 16 16 16 16 16 16 16 16 16 15 15 15 15 15 15 15 15 15 15 15 15 15 15 15 14 14 15 15 15 15 15 15 15 15 15 15
16 16 16 16 16 16 16 16 16 16 16 16 16 16 16 15 15 15 15 15 15 15 15 15 15 15 15 15 15 14 14 14 14 14 14 15 15 15 15 15 15 15 15
17 16 16 16 16 16 16 16 16 16 16 16 15 15 15 15 15 15 15 15 15 15 15 15 15 15 15 14 14 14 14 14 14 14 14 14 14 14 14 14 14 14 14
16 16 16 16 16 16 16 16 15 15 16 15 15 15 15 15 15 15 15 15 15 14 14 14 14 14 14 14 14 14 14 14 14 14 14 14 14 14 14 14 14 14 14
16 16 16 16 16 16 16 15 15 15 15 15 15 15 15 15 15 15 15 14 14 14 14 14 14 14 14 14 14 14 13 14 13 13 13 13 14 14 14 14 14 14 14
16 16 16 16 16 16 15 15 15 15 15 15 15 15 15 15 15 15 14 14 14 14 14 14 14 14 14 14 14 13 13 13 13 13 13 13 13 13 13 13 13 13 14
16 16 16 16 16 16 15 15 15 15 15 15 15 15 15 15 14 14 14 14 14 14 14 14 14 14 14 13 13 13 13 13 13 13 13 13 13 13 13 13 13 13 13
16 16 16 16 16 16 15 15 15 15 15 15 15 15 14 14 14 14 14 14 14 14 14 14 14 13 13 13 13 13 14 13 12 12 13 13 13 12 13 13 13 13 13
16 16 16 16 16 16 16 15 15 15 15 15 15 14 14 14 14 14 14 14 14 14 14 14 14 14 13 13 13 13 14 14 13 12 12 12 12 12 12 12 12 12 12
16 16 16 16 16 16 16 15 15 15 15 15 15 14 14 14 14 14 14 14 14 14 14 13 13 13 13 13 13 13 13 13 13 13 12 12 12 12 12 12 12 12 12
17 16 16 16 16 16 16 16 15 15 15 15 15 14 14 14 14 14 14 14 14 14 14 14 13 13 13 13 13 13 13 13 13 13 13 12 12 12 12 12 12 12 12
17 16 16 16 16 16 16 16 15 15 15 15 14 14 14 14 14 14 14 14 14 14 14 14 13 13 13 13 13 13 13 13 13 13 13 12 12 11 11 11 11 11 11
Wind_Speed
3 5 6 6 7 8 9 10 10 10 11 11 10 10 10 9 9 9 9 9 9 9 8 8 8 9 9 10 10 10 10 10 10 10 10 10 9 9 8 6 4 7 9
3 5 6 7 8 8 9 10 10 11 11 11 11 10 10 10 10 10 9 9 9 9 8 8 9 10 10 10 11 11 11 11 11 10 8 9 10 10 9 9 9 10 9
4 5 7 8 9 9 9 10 10 11 11 11 10 11 11 11 10 10 10 9 10 10 10 10 10 10 11 11 11 11 11 10 10 7 5 7 10 11 10 11 11 11 11
5 6 7 9 9 10 10 10 10 11 11 11 11 11 11 11 11 11 11 10 11 11 12 13 12 12 12 12 12 12 11 10 8 4 6 8 9 12 11 11 11 11 11
6 7 9 9 10 10 10 10 10 11 11 11 11 11 11 11 11 11 11 11 12 12 13 13 13 13 12 12 12 12 11 9 7 6 9 9 10 11 11 11 11 11 12
7 8 9 9 9 10 10 10 11 11 11 11 11 10 11 11 11 11 11 11 12 12 12 13 13 13 13 13 12 12 11 9 7 9 9 9 10 11 11 11 11 11 12
7 8 9 9 9 10 10 10 11 10 11 11 11 11 11 11 11 11 12 12 12 12 12 13 13 14 13 12 12 12 11 8 9 9 8 9 11 11 11 11 12 12 11
7 7 9 9 9 10 10 10 10 11 11 11 11 11 11 12 11 11 12 12 12 12 13 14 14 14 13 13 13 12 11 8 9 9 9 10 12 11 12 12 12 12 12
7 7 7 8 9 10 10 11 10 11 11 11 12 12 12 12 12 12 12 12 12 12 13 13 14 14 14 13 13 12 11 9 9 8 9 10 11 11 11 12 12 12 12
6 6 6 7 7 8 9 10 11 11 11 11 11 11 10 10 11 11 12 13 13 13 13 13 14 14 14 13 12 11 8 6 10 9 9 11 12 11 11 12 12 12 11
6 6 6 6 6 7 8 8 8 9 9 8 9 8 6 8 9 9 13 12 12 13 13 13 13 12 12 12 11 8 6 8 10 10 10 12 11 11 11 11 11 11 11
6 5 5 5 5 6 6 6 5 6 6 6 7 7 7 7 8 9 12 11 11 11 12 12 10 8 6 8 8 6 8 10 9 10 12 13 12 11 11 11 11 11 10
5 5 4 4 5 5 4 5 5 5 5 5 6 7 6 6 6 6 6 7 8 7 8 9 8 8 8 8 8 8 9 9 9 10 12 13 13 12 12 12 11 11 11
4 4 4 4 4 4 5 5 4 4 4 4 4 6 5 5 5 5 5 6 6 6 6 7 7 9 9 9 9 9 10 9 9 9 12 15 14 12 11 11 11 12 11
5 4 4 3 4 4 5 4 4 4 4 5 4 4 5 4 4 5 5 6 6 6 6 6 6 8 8 9 9 9 9 10 10 9 10 15 15 14 12 12 12 12 11
4 4 4 4 4 4 4 3 3 4 4 4 4 4 5 5 4 4 5 5 5 6 6 6 7 6 7 7 8 8 8 8 9 9 9 11 14 14 14 13 12 11 11
4 4 4 3 4 4 3 4 3 3 3 3 3 3 4 4 4 4 4 4 5 5 6 6 7 6 6 6 7 7 8 8 8 9 9 8 10 13 14 14 13 11 10
4 4 4 3 4 4 3 3 3 3 3 3 3 3 4 4 4 4 4 4 5 5 4 4 4 5 5 6 6 6 6 7 8 8 8 8 8 9 11 14 13 12 11
4 4 4 4 4 4 3 3 2 3 2 2 3 2 3 4 4 4 4 4 4 4 4 4 4 4 5 6 5 5 6 6 6 7 8 9 9 9 9 10 12 13 12
4 4 4 5 4 4 3 2 2 2 2 2 2 2 3 3 3 3 3 3 3 3 3 3 4 4 4 5 5 5 5 5 5 6 6 7 8 9 9 8 8 9 12
5 5 5 5 5 4 3 3 2 2 2 2 2 2 2 2 3 3 2 3 3 2 2 3 4 4 4 4 4 4 4 5 6 5 5 5 6 7 8 8 7 7 7
6 6 6 5 5 5 3 2 2 2 1 1 1 2 2 2 2 2 3 2 3 3 3 3 3 2 2 1 0 1 2 3 4 4 4 4 5 5 7 7 7 7 7
7 6 6 6 6 5 4 3 3 2 2 2 2 1 1 1 2 2 2 2 2 3 3 3 3 2 2 1 1 2 1 1 2 3 4 4 4 4 5 6 6 7 7
8 7 7 6 6 6 6 5 5 4 3 2 2 2 2 2 2 2 2 2 3 2 3 3 3 2 2 1 1 1 2 1 1 1 2 3 4 4 4 4 5 6 6
7 7 7 7 7 7 7 6 5 4 3 2 3 3 3 3 3 3 3 3 3 3 3 3 3 2 2 2 1 1 0 0 1 1 0 1 2 2 3 3 3 4 5
7 6 6 7 7 7 7 7 6 5 4 4 4 3 3 3 3 3 3 3 3 3 3 3 3 3 3 2 2 2 1 1 1 1 1 1 1 2 2 2 2 3 3
Wind_Direction
45 45 47 57 67 75 77 79 83 86 87 89 90 91 94 96 94 90 84 80 77 75 77 80 83 80 78 80 80 81 78 77 75 76 76 73 72 71 68 72 78 88 78
65 64 68 64 68 78 80 80 82 85 86 86 88 89 88 89 89 87 83 79 74 72 73 80 86 82 81 80 78 77 75 74 74 78 83 86 78 70 66 63 56 72 78
78 76 85 72 71 75 79 82 82 84 85 86 89 89 88 87 86 85 83 81 75 71 68 80 92 85 82 81 79 77 73 73 74 77 85 83 81 71 67 67 71 76 77
83 80 80 79 74 72 76 80 83 85 86 85 85 88 89 87 85 81 81 79 77 72 71 81 88 84 83 81 79 76 73 72 73 71 73 69 75 74 68 66 72 76 76
86 83 82 78 74 70 74 81 85 85 85 84 85 86 86 85 84 84 81 77 77 74 74 78 83 83 80 79 78 75 73 73 72 67 68 67 70 72 69 67 69 76 77
90 85 85 77 74 70 73 76 80 82 84 84 84 82 82 81 82 83 82 80 78 77 77 79 82 82 79 75 76 75 71 65 68 68 68 69 71 71 71 71 72 75 78
92 88 87 76 73 69 74 78 78 80 80 79 79 80 80 79 79 81 81 80 79 78 80 80 80 80 80 77 75 73 70 61 64 68 68 69 71 70 71 72 74 75 79
93 91 94 85 74 72 73 78 77 77 78 77 77 77 79 78 78 79 79 80 81 81 79 81 81 81 79 76 73 69 60 46 68 64 66 70 71 71 72 72 73 72 74
93 91 94 95 90 83 73 73 77 77 77 76 75 76 77 78 77 77 78 79 82 83 81 81 81 81 79 77 74 70 62 49 60 62 65 68 70 74 76 75 75 74 75
97 95 91 89 85 88 85 74 73 73 75 76 75 77 82 90 87 83 83 80 82 83 81 81 82 82 80 77 73 68 62 61 61 61 61 68 69 74 76 77 77 78 77
102 100 95 91 84 83 85 85 86 84 82 91 89 88 94 90 87 88 79 81 82 81 80 81 83 84 85 81 73 65 60 63 64 61 61 65 70 74 76 78 80 82 81
112 106 100 97 91 86 84 87 83 83 83 79 81 82 82 83 79 82 89 84 85 87 88 85 89 95 86 80 80 71 64 64 63 65 63 60 65 72 75 78 80 83 84
117 111 109 107 95 88 92 88 82 79 78 75 73 80 83 86 91 87 90 98 95 96 89 92 89 76 75 71 65 62 59 60 62 63 61 58 59 69 75 77 79 80 82
120 114 115 110 107 98 93 91 88 84 81 80 72 73 80 81 82 80 80 78 79 80 81 80 80 78 75 73 69 66 63 59 59 62 59 55 54 61 72 76 77 77 80
131 124 122 123 115 102 94 89 91 83 77 82 70 70 75 82 83 85 86 78 77 80 85 84 81 77 73 69 67 65 63 61 59 59 61 56 52 55 64 71 74 76 76
143 134 131 135 124 113 107 106 88 85 82 74 72 64 78 85 87 88 85 80 79 79 77 82 83 79 75 71 66 62 61 62 61 61 60 62 59 55 57 63 67 70 76
155 148 140 142 142 131 116 99 90 84 86 82 81 78 86 89 95 96 90 87 88 90 88 85 84 81 81 80 72 63 59 57 59 59 58 57 63 62 56 55 58 63 69
166 162 150 156 159 142 123 118 115 104 84 85 86 83 94 101 100 98 96 90 90 87 89 90 88 86 83 77 70 64 64 60 57 57 60 58 54 56 62 56 53 55 60
173 167 159 159 160 147 142 135 115 105 90 85 80 76 94 104 109 109 102 101 99 96 95 93 89 88 88 81 75 66 61 60 58 56 58 56 56 54 58 61 58 53 56
181 175 170 161 161 153 158 154 134 116 111 90 83 91 100 115 116 113 119 119 113 109 104 101 96 92 93 93 85 74 67 68 62 55 54 56 53 52 52 52 58 62 58
184 180 180 178 172 168 163 166 166 160 154 136 116 112 122 129 135 132 135 137 138 129 124 120 114 112 110 111 108 97 88 72 66 62 52 54 58 54 54 53 51 53 66
190 189 185 187 180 176 170 166 172 164 168 142 135 143 145 144 157 156 166 160 158 147 150 140 135 140 132 149 126 147 137 122 76 58 56 52 53 56 53 55 55 52 57
194 192 194 193 184 180 175 166 162 157 168 166 169 164 151 158 174 182 173 170 170 177 167 172 174 176 164 172 341 336 333 63 102 90 61 55 51 50 50 51 54 51 57
198 196 200 197 193 183 183 188 197 198 195 186 186 169 172 179 185 189 183 188 186 190 183 192 194 214 216 200 182 322 341 25 281 130 105 66 52 47 43 47 51 50 54
197 198 203 200 195 189 191 194 207 213 208 194 192 187 191 176 182 184 194 202 203 201 202 205 208 233 242 257 246 228 54 91 279 278 136 97 82 56 46 39 46 50 50
193 196 202 201 197 197 199 202 209 212 211 205 205 201 197 185 186 189 202 215 218 212 210 213 220 230 247 258 261 250 241 255 227 245 235 194 81 63 52 39 36 49 52
Height
1538 1536 1535 1534 1533 1533 1532 1531 1531 1531 1531 1531 1530 1530 1530 1530 1531 1531 1531 1530 1530 1530 1529 1529 1529 1529 1529 1529 1529 1529 1529 1529 1529 1529 1528 1528 1528 1527 1527 1527 1527 1526 1525
1538 1537 1536 1536 1535 1534 1534 1533 1533 1533 1532 1532 1532 1532 1532 1532 1532 1532 1532 1532 1531 1530 1528 1527 1528 1530 1530 1530 1531 1531 1530 1530 1530 1530 1530 1530 1530 1529 1529 1528 1528 1528 1526
1539 1539 1538 1537 1537 1536 1536 1535 1535 1535 1534 1534 1534 1534 1534 1534 1534 1534 1533 1533 1532 1530 1526 1523 1528 1530 1531 1532 1532 1532 1532 1532 1532 1532 1532 1532 1532 1531 1530 1530 1529 1529 1529
1540 1540 1540 1539 1538 1538 1538 1537 1537 1537 1536 1536 1536 1536 1536 1536 1536 1535 1535 1535 1534 1532 1529 1527 1530 1532 1533 1534 1534 1534 1533 1533 1533 1534 1534 1534 1533 1532 1532 1532 1531 1531 1530
1542 1542 1541 1541 1540 1540 1540 1539 1539 1539 1538 1538 1538 1538 1538 1538 1537 1537 1537 1536 1536 1535 1534 1533 1534 1534 1535 1535 1535 1535 1535 1535 1535 1535 1535 1535 1534 1534 1533 1533 1533 1532 1532
1543 1543 1543 1542 1542 1542 1541 1541 1541 1541 1540 1540 1540 1540 1540 1539 1539 1539 1538 1538 1538 1537 1537 1537 1537 1537 1537 1537 1537 1537 1537 1537 1537 1537 1537 1537 1536 1535 1535 1535 1534 1534 1533
1545 1545 1544 1544 1544 1543 1543 1543 1543 1542 1542 1542 1542 1542 1541 1541 1541 1540 1540 1540 1540 1540 1540 1539 1539 1539 1539 1539 1539 1539 1539 1538 1539 1539 1538 1538 1537 1537 1537 1536 1536 1535 1535
1546 1546 1546 1546 1545 1545 1545 1544 1544 1544 1544 1544 1544 1543 1543 1543 1542 1542 1542 1542 1542 1542 1542 1541 1541 1541 1541 1541 1541 1540 1540 1540 1541 1541 1540 1540 1539 1538 1538 1538 1537 1537 1537
1547 1548 1548 1548 1547 1547 1546 1546 1546 1546 1546 1545 1545 1545 1545 1544 1544 1544 1544 1544 1544 1544 1543 1543 1544 1543 1543 1543 1543 1542 1542 1542 1543 1543 1543 1542 1541 1540 1540 1539 1539 1538 1538
1548 1549 1549 1550 1550 1550 1549 1548 1548 1548 1548 1547 1547 1547 1547 1547 1547 1547 1546 1546 1546 1546 1545 1545 1546 1546 1545 1545 1545 1544 1544 1544 1545 1544 1544 1543 1542 1542 1542 1541 1540 1540 1539
1550 1550 1551 1551 1551 1551 1551 1550 1550 1550 1550 1549 1549 1549 1549 1549 1549 1549 1548 1548 1548 1548 1547 1547 1547 1548 1547 1547 1547 1546 1546 1547 1546 1546 1545 1545 1544 1543 1543 1542 1542 1541 1541
1551 1551 1552 1552 1552 1553 1552 1552 1552 1552 1552 1552 1552 1552 1551 1551 1551 1551 1550 1550 1550 1550 1550 1549 1549 1550 1550 1550 1549 1549 1549 1549 1548 1548 1547 1546 1546 1545 1544 1543 1543 1542 1542
1552 1552 1553 1553 1554 1554 1554 1554 1554 1554 1554 1554 1554 1553 1553 1553 1553 1553 1553 1553 1552 1552 1552 1552 1552 1552 1552 1551 1551 1551 1551 1550 1550 1549 1549 1548 1547 1546 1545 1545 1544 1544 1544
1553 1553 1554 1554 1555 1555 1555 1555 1555 1555 1555 1555 1555 1555 1555 1555 1555 1555 1555 1554 1554 1554 1554 1554 1553 1554 1554 1553 1553 1553 1552 1552 1551 1551 1550 1549 1549 1548 1547 1546 1546 1545 1545
1553 1554 1554 1555 1556 1556 1556 1556 1557 1557 1557 1557 1556 1557 1557 1556 1556 1556 1556 1555 1555 1555 1555 1555 1555 1555 1555 1555 1554 1554 1554 1553 1553 1552 1552 1551 1550 1549 1549 1548 1547 1547 1547
1554 1554 1555 1555 1556 1557 1557 1557 1558 1558 1557 1558 1557 1558 1558 1557 1557 1557 1557 1557 1557 1557 1556 1556 1557 1556 1556 1556 1555 1555 1555 1555 1554 1554 1553 1552 1551 1551 1550 1549 1549 1548 1548
1554 1555 1555 1556 1557 1557 1558 1558 1558 1558 1559 1559 1558 1559 1559 1558 1558 1558 1558 1558 1558 1558 1558 1558 1557 1557 1557 1557 1556 1556 1556 1556 1556 1555 1555 1554 1553 1552 1552 1551 1550 1550 1549
1554 1555 1556 1556 1557 1558 1558 1558 1559 1559 1559 1559 1559 1559 1559 1559 1559 1559 1559 1559 1559 1559 1559 1558 1558 1558 1558 1558 1558 1557 1557 1556 1556 1556 1556 1555 1554 1554 1553 1552 1552 1551 1550
1554 1555 1556 1556 1557 1558 1558 1559 1559 1560 1560 1560 1560 1560 1560 1560 1560 1560 1560 1560 1560 1560 1560 1560 1559 1559 1559 1559 1558 1558 1558 1557 1557 1557 1557 1556 1555 1555 1554 1553 1552 1552 1551
1554 1555 1556 1556 1557 1558 1558 1559 1559 1560 1560 1560 1560 1560 1560 1560 1560 1560 1560 1561 1561 1561 1560 1560 1560 1560 1560 1559 1559 1559 1559 1558 1558 1558 1557 1557 1556 1556 1555 1554 1553 1553 1552
1553 1554 1555 1556 1557 1557 1558 1559 1559 1560 1560 1560 1560 1560 1560 1560 1560 1560 1560 1561 1561 1561 1561 1561 1561 1561 1560 1560 1561 1560 1560 1560 1559 1558 1558 1558 1557 1556 1556 1555 1554 1553 1552
1552 1553 1554 1555 1556 1557 1557 1559 1559 1560 1560 1560 1560 1560 1560 1560 1560 1560 1561 1561 1561 1561 1561 1561 1561 1561 1561 1561 1562 1561 1562 1562 1560 1559 1559 1558 1558 1557 1556 1555 1554 1554 1553
1551 1552 1553 1554 1555 1556 1557 1558 1558 1559 1559 1560 1560 1560 1560 1560 1560 1560 1560 1561 1561 1561 1561 1561 1561 1561 1561 1561 1562 1562 1562 1561 1562 1561 1560 1559 1558 1557 1556 1556 1555 1554 1553
1549 1550 1552 1553 1554 1555 1556 1557 1558 1558 1559 1559 1559 1559 1559 1559 1559 1559 1560 1560 1561 1561 1561 1561 1561 1561 1561 1561 1561 1561 1562 1561 1562 1561 1561 1560 1558 1557 1557 1556 1555 1554 1553
1547 1548 1550 1551 1553 1554 1555 1555 1556 1557 1558 1558 1558 1558 1558 1558 1558 1559 1559 1559 1560 1560 1560 1560 1560 1560 1560 1561 1561 1560 1560 1560 1561 1561 1561 1560 1559 1558 1557 1556 1555 1554 1554
1545 1546 1548 1549 1551 1552 1553 1554 1555 1556 1556 1556 1556 1557 1557 1557 1557 1558 1558 1558 1559 1559 1559 1559 1559 1559 1559 1559 1560 1560 1560 1560 1560 1560 1560 1560 1559 1558 1557 1556 1556 1555 1554